Home > Weather > Fortaleza > Past weeks

Flag for Brazil Past Weather in Fortaleza, Ceará, Brazil — Yesterday and Last 2 Weeks

Now
77 °F

Passing clouds.


Feels Like: 79 °F
Forecast: 77 / 86 °F
Wind: 7 mph from Southeast

Location: Fortaleza Aeropor-To

Current Time: Jul 1, 2016 at 3:15:33 AM

Latest Report: Jul 1, 2016 at 3:00 AM


Visibility: N/A

Pressure: 29.95 "Hg

Humidity: 74%

Dew Point: 68 °F

Location of FortalezaLocation

Past Weather in Fortaleza — Graph

°F

Fortaleza Temperature Yesterday

Maximum temperature yesterday: 88 °F (at 11:00 AM)
Minimum temperature yesterday: 75 °F (at 4:00 AM)
Average temperature yesterday: 81 °F

High & Low Weather Summary for the Past Weeks

 TemperatureHumidityPressure
High88 °F (Jun 16, 11:00 AM)89% (Jun 17, 3:00 AM)30.07 "Hg (Jun 17, 3:00 AM)
Low73 °F (Jun 29, 5:00 AM)38% (Jun 30, 11:00 AM)29.86 "Hg (Jun 30, 3:00 PM)
Average81 °F70%29.96 "Hg
* Reported Jun 16 2:00 AM — Jul 1 2:00 AM, Fortaleza, Weather by CustomWeather, © 2016

Note: Actual official high and low records may vary slightly from our data, if they occured in-between our weather recording intervals... More about our weather records

Advertising

Fortaleza Weather History for the Previous 24 Hours

Scroll right to see more
 ConditionsComfort  
Time TempWeatherWind HumidityBarometerVisibility
2:00 AM
Fri, Jul 1
79 °FPassing clouds.9 mph74%29.95 "HgN/A
1:00 AM79 °FClear.10 mph74%29.98 "Hg10 mi
12:00 AM81 °FClear.14 mph74%29.98 "Hg10 mi
11:00 PM
Thu, Jun 30
81 °FPassing clouds.17 mph74%29.98 "HgN/A
10:00 PM81 °FClear.14 mph74%29.98 "Hg10 mi
9:00 PM81 °FClear.12 mph74%29.98 "Hg10 mi
8:00 PM81 °FClear.9 mph79%29.95 "Hg10 mi
7:00 PM81 °FClear.10 mph79%29.92 "Hg10 mi
6:00 PM81 °FClear.8 mph74%29.92 "Hg10 mi
5:00 PM82 °FSunny.16 mph66%29.89 "Hg10 mi
4:00 PM84 °FSunny.17 mph58%29.86 "Hg10 mi
3:00 PM86 °FSunny.18 mph52%29.86 "Hg10 mi
2:00 PM86 °FSunny.17 mph49%29.89 "Hg10 mi
1:00 PM88 °FSunny.10 mph46%29.92 "Hg10 mi
12:00 PM88 °FSunny.10 mph46%29.95 "Hg10 mi
11:00 AM88 °FSunny.18 mph38%29.98 "Hg10 mi
10:00 AM86 °FSunny.14 mph40%29.98 "Hg10 mi
9:00 AM82 °FSunny.18 mph45%30.01 "Hg10 mi
8:00 AM79 °FSunny.17 mph51%30.01 "Hg10 mi
7:00 AM77 °FSunny.13 mph61%29.98 "Hg10 mi
6:00 AM75 °FSunny.12 mph78%29.95 "Hg10 mi
5:00 AM75 °FClear.8 mph78%29.95 "Hg10 mi
4:00 AM75 °FClear.9 mph83%29.95 "Hg10 mi
3:00 AM77 °FClear.8 mph83%29.95 "Hg10 mi
Weather by CustomWeather, © 2016

See weather overviewHow to use our weather pages